Theta_e
311 311 311 311 311 311 312 312 312 312 312 312 313 314 314 314 313 312 321 324 317 316 319 321 321 318 318 319 316 320 319 321 320 316 314 314 312 313 313 316 315 312 313 310 313 310 307 324 321 315 323 325 323 324
310 310 310 311 311 311 311 312 312 311 311 312 312 312 312 313 313 312 318 322 322 315 316 320 321 322 322 322 318 321 320 323 322 317 317 316 312 314 317 308 320 311 317 314 317 314 327 325 324 326 326 325 324 325
310 310 310 310 311 311 311 311 311 311 311 311 311 312 312 312 312 311 315 321 318 316 317 318 318 324 325 323 323 313 317 322 321 324 319 317 315 317 310 312 317 320 323 318 321 322 322 324 327 328 327 325 326 326
309 310 310 310 311 311 311 311 310 310 310 311 311 312 312 312 311 310 315 320 320 318 311 316 324 321 325 324 323 323 319 319 319 319 316 315 313 318 313 313 314 316 320 320 320 323 324 325 325 324 324 325 324 324
309 309 310 310 311 311 311 311 310 311 311 312 312 312 312 311 311 312 318 324 325 316 312 314 320 321 323 324 324 322 320 318 315 313 312 311 315 314 315 314 311 316 315 312 312 322 321 321 323 324 322 322 324 324
309 309 310 310 310 310 311 310 311 311 311 311 311 311 311 311 311 318 319 326 327 324 315 310 321 321 323 324 323 323 322 320 317 314 314 315 316 315 310 310 318 318 321 320 319 322 322 322 324 326 324 324 325 327
309 309 309 310 310 310 310 310 310 310 310 311 311 310 310 310 315 316 314 318 315 323 317 312 313 322 322 320 321 322 323 319 318 316 315 314 314 315 312 309 316 317 320 321 323 322 320 321 321 325 325 326 325 326
309 309 309 309 310 310 310 310 309 310 310 310 310 310 311 312 311 316 321 315 316 317 317 310 312 315 322 317 315 325 321 321 319 316 316 314 315 315 310 315 316 317 321 322 321 322 322 323 326 325 326 325 324 324
309 309 309 309 309 309 310 309 309 310 310 310 310 311 317 315 321 320 312 316 325 319 313 314 311 309 319 314 316 316 317 313 321 314 314 315 311 309 315 318 319 319 321 321 323 323 324 323 323 323 324 324 324 325
309 309 309 309 309 309 309 309 309 309 309 310 315 317 318 319 315 317 320 318 318 318 314 308 314 309 316 317 315 315 316 310 309 315 318 313 311 319 318 318 323 326 325 325 322 321 322 322 321 322 323 325 325 326
309 309 309 309 309 309 309 309 310 309 313 314 310 313 316 318 317 319 314 312 315 311 315 315 316 313 320 312 313 317 312 311 305 311 312 311 310 319 325 324 329 328 326 324 324 324 323 323 322 324 326 327 327 327
309 309 309 308 309 309 310 310 310 311 310 308 306 310 315 315 314 310 309 312 310 310 316 314 315 316 317 321 315 315 310 310 303 315 312 308 315 319 320 325 325 325 324 324 324 323 324 324 327 327 329 329 329 331
309 309 308 308 308 309 309 310 310 310 310 314 309 310 312 312 299 303 303 307 309 314 316 315 311 314 315 318 315 312 307 305 313 307 307 314 319 316 315 321 324 324 324 324 324 325 326 328 327 328 327 331 333 331
309 308 308 308 308 309 310 310 310 311 311 309 309 294 304 303 306 308 309 312 315 316 314 313 311 311 313 311 313 307 311 312 305 303 306 316 314 317 322 327 325 325 325 325 325 326 326 327 326 330 330 331 331 332
308 308 308 308 310 310 310 310 310 313 308 304 307 295 305 309 312 313 314 313 314 316 314 311 311 311 309 308 311 310 307 303 306 308 316 324 325 325 327 328 326 327 325 326 327 325 327 328 327 329 332 332 334 333
307 307 310 310 310 310 310 311 314 313 306 302 304 303 309 308 308 311 311 311 315 314 314 312 308 306 306 308 306 305 304 303 307 313 314 321 326 328 330 327 327 328 328 323 324 329 328 329 329 331 334 333 333 334
306 309 310 310 310 310 310 311 311 306 304 301 303 309 308 308 308 310 311 311 316 311 306 308 303 304 310 307 305 311 306 311 312 314 319 326 325 328 331 328 327 326 323 325 322 330 331 331 330 330 317 319 327 334
307 312 310 310 311 311 312 312 308 305 299 303 303 307 311 312 310 311 313 314 312 310 309 305 311 304 303 301 303 311 313 316 315 316 320 323 326 330 329 329 330 329 327 326 329 333 333 328 328 326 321 319 329 334
309 308 308 309 310 308 306 306 308 300 301 306 308 310 310 311 314 315 314 315 314 314 311 308 303 303 307 314 313 313 314 315 313 316 319 325 329 329 330 329 329 329 323 328 331 325 323 324 325 328 327 329 326 325
308 309 310 310 310 307 303 305 311 303 300 304 308 307 308 309 312 313 313 312 311 308 304 304 305 308 311 312 316 316 317 319 317 314 316 321 328 331 330 328 325 330 330 332 326 314 324 327 325 327 326 328 326 326
311 314 312 312 311 309 306 305 304 305 304 303 308 308 309 312 311 310 311 314 309 308 306 310 311 315 319 322 321 321 321 321 319 318 316 316 324 324 326 327 327 326 325 325 324 321 319 321 324 323 327 326 328 326
313 312 312 311 307 306 305 307 304 306 303 305 306 309 307 308 310 315 316 312 309 312 312 312 316 321 322 323 325 326 327 323 322 317 311 316 319 322 323 324 324 323 324 325 325 323 324 324 323 323 329 329 326 330
310 310 310 308 303 300 298 308 300 301 298 301 306 304 307 308 312 319 311 309 311 316 316 318 320 321 322 324 325 324 326 323 322 325 327 325 320 321 320 318 321 321 326 324 324 327 325 317 320 324 328 327 327 326
309 307 302 301 301 296 303 299 302 300 302 301 301 303 307 310 315 313 305 310 314 316 316 316 319 317 318 322 320 320 325 330 330 332 324 323 320 320 322 323 325 324 324 323 328 327 327 327 319 327 328 325 327 329
296 297 299 291 302 298 296 297 298 299 298 301 301 302 308 313 307 304 304 311 315 317 316 317 317 316 316 319 325 325 330 328 324 326 327 328 326 327 326 328 330 326 327 325 326 326 325 326 327 328 324 319 321 326
292 299 295 298 298 297 297 296 298 300 302 301 303 308 310 307 302 299 304 313 313 316 316 313 313 314 315 321 320 318 320 323 328 327 329 325 330 324 323 324 324 328 328 328 325 325 326 327 328 326 326 322 309 322
290 296 302 306 303 303 300 302 303 302 298 299 306 305 305 300 300 307 316 317 316 316 316 318 318 315 314 316 318 320 321 321 323 324 329 333 331 328 325 320 323 329 329 329 328 327 327 327 326 324 323 324 322 321
301 301 297 301 301 302 298 299 299 299 302 310 308 302 300 303 305 312 313 318 317 316 316 317 318 318 315 315 317 322 329 326 327 326 334 330 334 331 330 332 325 307 322 322 324 324 325 324 323 320 319 318 317 317
300 302 302 299 301 301 302 300 300 303 309 307 305 306 309 313 315 316 319 321 318 316 315 313 313 316 319 320 322 322 322 318 318 317 317 321 323 325 326 325 326 328 327 323 300 310 318 319 319 319 318 317 316 316
300 303 299 299 298 298 302 305 304 307 309 310 311 310 311 313 318 322 322 320 314 312 313 314 315 316 316 315 315 317 319 321 320 319 316 318 320 327 324 323 323 321 322 321 319 319 305 314 311 316 314 314 313 313
304 303 300 300 299 303 305 307 309 309 309 308 310 307 309 312 321 322 320 317 315 315 316 315 316 318 317 319 317 315 315 320 320 320 320 322 325 324 322 322 321 320 320 318 316 315 314 313 313 312 311 311 310 309
301 300 299 297 299 305 308 305 305 304 306 306 305 309 309 310 310 319 318 317 317 314 311 314 318 319 321 321 322 318 305 314 311 312 314 316 318 318 319 319 319 318 316 315 313 313 312 311 311 311 310 310 310 309
301 302 302 301 301 302 305 305 304 304 306 306 307 309 309 311 308 312 317 318 312 315 315 317 319 319 320 320 318 315 307 312 304 292 293 292 292 301 313 316 317 316 314 313 313 313 312 311 310 310 309 309 308 308
Wind_Speed
14 15 16 16 17 17 18 18 19 20 22 22 22 23 24 24 23 14 7 6 6 6 12 12 12 11 11 10 9 11 9 6 6 10 11 11 13 14 17 17 16 16 12 12 11 16 19 12 2 4 5 1 4 8
14 15 16 16 16 17 18 18 19 21 21 21 22 22 22 21 21 17 7 9 7 5 10 16 15 15 14 13 11 8 12 10 4 7 7 7 12 12 14 14 14 12 12 10 13 12 4 4 3 5 6 6 7 7
13 15 16 17 17 17 18 19 20 21 20 22 22 23 21 18 16 11 7 8 9 6 12 13 11 11 8 10 11 11 10 14 11 12 9 9 12 10 13 12 16 15 12 12 12 13 16 13 13 13 11 8 9 10
13 15 16 16 17 18 19 19 21 22 23 21 21 22 21 17 14 11 6 6 6 6 6 2 5 6 1 7 6 10 13 16 14 8 9 10 12 9 13 17 16 13 13 14 14 11 13 12 11 8 8 8 11 12
13 14 15 16 17 18 19 19 20 21 22 22 22 22 20 17 13 9 8 4 3 6 7 9 18 14 7 5 10 8 10 11 8 9 10 11 11 13 12 15 15 14 14 11 11 11 11 10 13 14 13 10 12 13
13 14 15 16 17 18 19 20 21 22 23 23 22 21 19 16 10 6 5 4 7 6 5 5 7 5 3 5 7 9 8 9 9 9 8 10 18 14 12 14 14 14 15 14 11 7 10 11 11 10 11 11 14 12
14 15 16 17 18 19 20 21 22 24 24 24 22 20 17 11 6 5 6 5 7 6 5 6 6 7 2 7 8 7 9 6 8 9 11 12 12 12 13 15 14 18 15 14 18 11 12 12 11 13 12 13 11 14
14 15 16 17 18 19 20 21 24 26 27 25 21 17 13 11 7 4 3 3 5 5 5 5 5 6 5 6 7 3 4 6 7 9 10 11 11 10 13 17 19 17 11 14 15 12 12 11 12 10 12 14 14 14
13 14 15 16 18 18 20 22 25 27 29 28 21 14 4 4 3 5 3 5 4 5 6 4 6 4 5 7 6 7 9 8 9 10 10 10 11 13 15 14 15 14 15 13 9 8 12 14 14 14 14 14 16 14
14 14 16 17 17 18 19 23 23 28 31 29 8 6 5 5 2 5 4 5 7 6 5 6 7 9 8 6 7 6 5 7 8 9 7 11 12 16 18 17 10 8 9 9 11 10 10 11 12 12 13 15 12 15
14 14 16 16 17 18 20 20 20 28 13 7 6 5 7 4 4 6 4 4 5 5 6 6 3 7 6 7 9 5 6 5 6 8 10 11 10 6 7 2 7 7 3 3 5 7 9 12 13 14 14 15 15 13
13 14 15 16 17 17 16 17 16 12 9 8 6 8 6 5 5 5 4 4 3 3 4 6 3 5 3 3 5 4 5 4 7 4 3 5 11 23 25 11 8 7 7 7 7 9 11 14 11 11 11 14 15 14
13 14 16 17 17 16 16 13 14 16 17 3 5 6 2 2 3 6 7 5 4 3 2 6 6 5 4 2 3 5 6 6 7 9 6 6 13 12 8 21 11 7 7 9 11 11 10 10 17 13 9 14 17 9
13 14 16 17 17 17 10 13 14 12 6 5 4 3 5 6 6 3 5 6 4 3 6 7 7 4 5 4 4 5 6 6 8 10 2 6 6 16 17 8 10 10 11 12 12 8 10 11 7 11 12 11 10 11
13 16 17 17 5 7 11 14 17 6 4 5 6 4 7 7 3 4 3 5 4 3 5 6 7 6 7 4 4 4 5 6 5 8 6 5 6 4 8 12 11 12 9 10 9 5 8 10 12 10 12 12 14 8
13 19 1 6 9 11 13 13 8 3 2 4 5 6 6 5 7 5 5 4 6 5 5 3 4 5 5 4 5 6 6 5 5 6 7 9 9 10 9 9 9 10 11 7 17 8 11 11 12 12 13 16 11 11
10 4 6 12 13 17 15 5 2 4 3 4 6 8 8 7 7 6 5 5 4 5 5 1 5 2 5 5 4 2 3 3 4 6 9 9 10 11 9 7 7 8 10 9 9 14 11 12 11 10 12 17 25 10
6 4 12 11 11 9 1 4 4 4 5 6 8 9 6 4 5 5 4 6 5 4 4 4 4 7 4 4 3 3 5 6 5 7 8 9 12 13 10 8 7 9 13 17 17 15 13 7 11 7 9 16 16 8
10 10 15 15 7 5 4 3 4 4 5 7 7 8 6 6 5 6 6 6 3 3 3 4 6 8 5 3 6 7 6 8 9 10 9 10 12 12 12 10 9 7 5 18 12 11 7 5 11 12 11 11 11 2
16 17 14 8 4 3 5 3 3 4 5 5 7 8 5 6 7 6 4 4 3 1 3 6 11 10 6 7 6 8 8 8 9 10 11 8 7 11 8 9 10 11 11 7 5 10 10 5 5 8 10 10 7 6
6 2 6 6 4 4 5 3 4 3 4 5 6 6 7 6 5 3 0 5 5 4 6 8 7 13 12 9 7 8 10 7 9 8 10 11 11 9 11 11 11 9 10 4 1 4 7 2 4 6 16 7 6 4
1 4 3 4 4 5 5 5 4 5 4 6 8 5 5 4 2 0 2 3 0 2 2 6 9 10 10 11 10 11 10 8 8 6 12 12 14 10 10 10 12 13 10 6 2 7 5 1 4 7 12 13 13 14
3 4 4 4 4 3 6 3 3 3 4 4 4 3 4 1 1 2 3 1 2 3 4 8 11 11 9 11 13 12 12 13 8 8 9 6 2 5 7 9 8 14 10 5 6 11 3 6 6 3 6 10 8 9
3 4 3 3 5 5 2 3 3 3 4 4 3 4 3 3 2 2 1 2 3 4 4 7 6 7 8 9 5 6 7 5 7 7 2 2 3 3 5 7 2 3 9 13 10 7 8 9 10 5 9 12 8 11
2 4 4 4 4 5 4 4 5 5 4 5 4 4 1 2 0 2 1 3 6 4 5 7 8 6 7 8 7 6 5 5 9 7 6 7 7 7 5 6 2 2 5 6 10 10 9 8 8 14 9 5 9 13
5 7 6 5 3 5 4 4 3 2 4 3 3 3 2 2 3 1 2 5 7 7 7 6 6 5 6 7 8 9 10 9 7 5 6 8 6 7 7 9 10 9 5 6 5 9 10 10 11 13 12 11 7 9
4 5 6 4 4 4 3 4 5 4 3 4 2 2 2 1 3 2 2 3 5 7 5 5 4 5 5 7 7 7 7 8 8 7 5 4 5 7 5 4 5 7 10 12 13 13 13 14 13 12 10 10 11 12
6 5 9 6 6 4 7 3 4 4 4 2 3 2 1 3 2 2 4 1 5 5 4 5 4 4 7 8 8 7 8 9 7 5 3 4 4 1 3 2 5 9 9 12 11 12 10 10 11 11 12 12 12 12
7 5 4 8 5 4 5 5 4 4 1 1 4 3 2 1 3 3 2 1 4 4 6 7 7 8 9 6 6 7 2 6 10 13 13 10 9 8 7 3 5 5 5 9 9 10 12 11 10 9 10 9 9 10
9 6 5 8 11 7 6 5 3 5 6 4 4 7 4 2 3 4 2 2 2 3 5 6 7 8 8 10 9 8 9 8 9 10 9 9 8 7 5 6 5 7 6 7 6 8 3 6 9 11 11 10 9 10
1 3 8 9 6 6 9 9 7 8 7 8 9 8 7 2 3 1 3 3 1 4 5 7 9 9 9 7 8 9 8 10 12 12 10 6 5 5 9 9 7 5 6 8 8 10 10 11 11 13 14 14 15 13
4 8 7 9 9 9 9 7 11 7 5 5 7 7 6 7 2 2 3 2 2 4 6 9 7 8 7 5 4 6 10 8 9 10 12 10 10 9 5 5 5 7 10 10 10 11 12 12 11 12 11 13 13 14
6 5 4 4 6 7 9 10 6 5 9 11 9 7 4 1 0 2 2 2 2 5 5 5 6 5 6 5 6 6 4 3 3 2 5 9 12 12 10 10 7 8 10 9 9 11 13 15 13 15 15 16 15 13
Wind_Direction
359 360 358 356 356 353 349 347 347 350 353 353 353 352 352 351 353 350 301 26 349 310 297 299 307 302 294 279 292 309 315 269 271 274 280 273 274 278 282 281 281 276 277 255 249 254 266 22 335 311 47 278 302 338
357 357 356 353 351 348 346 345 347 349 350 348 348 347 348 347 346 343 287 0 334 268 289 317 283 278 285 296 303 296 299 304 310 323 277 280 277 276 279 280 285 283 281 279 274 295 332 304 240 278 297 330 319 308
357 355 353 350 347 345 344 344 347 346 344 344 342 341 339 337 340 344 302 311 312 251 276 239 241 220 234 245 260 276 271 284 300 318 286 291 291 304 290 286 291 293 293 275 275 276 285 288 321 316 319 332 321 317
354 352 349 346 343 342 341 342 344 343 341 338 333 333 333 329 329 321 305 336 295 293 278 52 90 218 355 259 270 287 278 282 291 295 280 279 274 271 278 288 285 283 290 296 298 287 283 275 284 350 336 323 304 296
348 346 343 341 341 339 339 338 339 335 330 330 328 328 328 324 318 285 257 301 321 318 326 311 316 283 237 332 310 241 268 270 263 259 253 257 264 271 271 278 277 286 292 285 289 328 316 328 336 327 315 308 308 304
345 343 340 338 337 336 335 333 330 329 326 326 325 326 325 322 322 259 189 126 13 351 285 292 326 279 222 256 258 268 263 260 254 267 266 266 268 271 275 278 289 288 282 292 290 322 307 301 288 303 291 297 275 280
339 340 338 336 335 335 334 332 330 326 321 321 323 322 322 324 278 321 10 13 339 305 255 285 290 135 204 254 251 232 238 237 259 259 254 259 262 270 271 269 270 277 289 298 299 286 286 295 301 286 282 285 306 290
332 335 334 333 333 333 333 333 331 324 318 318 319 316 308 315 280 226 149 296 315 267 276 278 278 271 76 319 304 154 276 279 247 255 268 269 273 252 256 268 280 290 306 302 297 293 287 297 318 316 310 300 283 280
328 328 329 330 332 331 331 334 331 321 317 313 315 300 265 221 259 52 281 259 231 294 307 268 292 314 15 311 311 300 278 261 270 254 244 248 255 260 273 264 253 252 258 262 276 345 324 314 306 297 303 312 318 309
325 326 327 328 330 329 331 336 330 322 314 306 288 209 195 39 291 246 179 201 198 183 223 265 301 286 275 344 308 285 268 267 261 274 257 230 245 250 253 260 271 44 20 341 323 309 303 305 308 296 303 303 297 296
320 323 322 323 325 326 333 335 331 323 301 341 345 1 334 299 266 222 259 230 158 224 201 226 324 330 333 336 326 295 316 321 289 272 261 269 268 8 2 320 42 32 26 324 323 311 301 306 305 310 313 310 301 279
316 317 316 317 320 322 326 326 331 335 346 322 305 279 261 241 230 262 235 196 246 304 58 330 320 263 338 1 296 274 257 238 255 287 268 268 17 10 11 321 79 8 350 335 318 307 301 302 313 311 321 309 293 292
309 312 311 312 313 319 320 317 321 309 294 154 216 243 267 250 4 231 193 213 218 97 65 306 306 334 281 124 274 270 273 249 268 272 258 50 24 27 52 290 355 343 338 330 330 317 323 346 358 308 293 291 289 290
305 308 305 306 310 310 310 314 319 319 279 272 248 295 236 198 241 223 309 30 62 299 290 340 309 300 312 212 248 262 261 292 265 265 351 49 7 29 300 311 344 350 349 346 2 349 321 322 295 316 299 304 311 277
306 303 297 300 311 317 314 311 304 288 305 284 303 245 229 268 320 310 327 314 273 279 316 318 313 283 265 257 256 270 266 253 25 20 15 357 18 337 333 331 351 342 338 332 322 315 301 317 308 303 305 311 307 300
316 297 157 4 331 316 307 301 273 232 250 269 256 265 259 266 262 215 232 268 23 359 333 322 309 284 249 219 233 245 293 24 22 336 307 323 3 333 330 325 335 335 328 350 312 320 319 309 307 303 304 329 322 305
297 250 35 6 334 303 286 272 276 233 259 251 240 228 247 286 290 302 318 313 337 291 280 22 258 296 315 261 262 230 6 328 232 250 272 338 318 308 310 300 300 294 298 314 326 307 316 308 297 310 33 357 299 299
250 305 7 335 333 319 217 228 261 252 253 254 260 264 261 280 301 290 324 20 342 359 354 307 304 265 253 239 260 344 320 304 333 304 299 314 292 293 296 290 300 319 334 315 298 291 294 301 282 293 173 214 256 258
290 308 300 300 308 313 293 228 253 267 251 267 263 270 271 281 296 336 5 42 39 18 340 271 251 254 273 317 281 288 312 312 330 314 304 291 283 285 276 289 299 286 202 266 306 343 326 348 341 334 320 320 301 343
275 271 264 267 247 249 251 237 244 269 278 307 306 280 305 271 257 233 216 196 176 155 227 238 247 271 252 240 289 308 300 314 312 314 304 296 278 288 278 304 294 288 271 266 49 346 334 303 342 324 307 280 303 340
262 152 160 205 212 252 274 283 242 261 301 279 279 264 267 262 256 228 154 171 186 211 240 251 289 318 324 320 303 296 309 308 290 284 284 300 299 309 308 294 281 289 303 318 50 2 283 83 207 248 270 318 349 319
196 187 229 203 248 203 252 242 269 323 272 285 296 277 283 281 295 95 293 243 235 47 17 315 308 305 307 312 316 303 288 307 299 291 269 259 263 288 300 311 358 335 333 11 101 258 283 111 306 291 309 15 13 8
272 219 232 216 240 221 256 236 238 244 260 275 264 276 239 282 284 257 79 137 281 268 288 294 304 299 299 312 309 308 304 301 285 279 296 326 30 333 341 326 357 344 314 11 286 265 299 164 99 77 298 360 13 310
198 252 238 248 213 258 227 212 240 246 251 247 263 251 227 195 178 126 159 216 245 270 302 311 322 319 317 314 316 284 295 315 288 283 261 234 287 303 188 243 127 262 312 284 325 344 336 334 331 351 38 4 327 36
212 248 183 253 236 239 229 232 214 223 239 231 260 269 11 141 274 94 263 0 343 342 310 348 330 340 314 312 317 326 339 352 348 347 357 4 31 358 349 346 87 218 254 315 325 2 357 11 8 56 84 83 24 6
220 207 201 220 209 225 205 248 237 222 274 284 252 285 310 29 61 44 305 327 342 348 359 339 329 323 337 347 346 348 358 354 327 327 18 5 353 349 343 341 335 326 30 348 343 25 14 7 25 57 49 36 29 24
247 236 212 221 253 251 232 277 287 263 283 248 259 303 342 217 147 188 143 12 336 359 354 305 344 329 319 309 311 309 308 307 310 332 328 311 58 17 328 294 325 1 11 10 26 18 34 42 51 55 56 41 37 36
241 242 238 216 212 245 268 280 284 248 255 272 272 163 218 353 63 81 39 302 7 14 310 311 306 281 280 279 279 283 286 286 259 341 326 360 347 281 205 107 89 70 56 32 32 25 49 55 49 49 52 54 52 42
228 242 243 259 225 207 238 218 232 264 241 81 309 324 50 130 22 89 160 214 48 339 339 329 326 312 302 284 274 285 264 344 16 9 11 24 18 6 359 331 70 51 68 89 68 54 57 50 44 55 69 66 61 73
234 209 226 231 228 232 228 216 242 294 301 265 250 278 266 53 11 101 137 110 21 329 311 300 284 342 356 7 358 35 31 18 20 14 2 18 355 327 12 27 37 38 39 46 42 56 49 75 66 57 48 50 56 56
273 223 226 233 246 255 257 252 237 244 233 259 272 269 275 273 142 264 91 84 283 303 304 340 357 351 344 359 7 1 4 22 14 5 354 355 320 4 19 13 19 53 43 64 35 45 51 54 55 51 43 41 39 40
219 227 233 242 239 257 283 289 263 244 274 273 270 267 263 257 177 170 101 237 326 322 354 350 346 2 9 9 5 77 38 31 14 8 12 3 11 3 359 327 33 61 61 64 55 46 46 49 45 40 47 44 36 34
210 252 258 254 254 247 233 232 229 251 234 232 224 230 238 324 97 53 350 15 302 319 325 325 14 11 15 39 54 67 45 38 83 10 9 23 29 23 18 7 45 59 60 56 58 60 54 46 42 35 30 23 24 28